星链-31912 (STARLINK-31912 )

导读 | 豆包AI

STARLINK-31912是美国SpaceX公司星链星座的一员,于2024年5月6日发射升空,属于低轨卫星互联网卫星。它运行在近地轨道,和星链其他卫星一同构建全球覆盖的卫星互联网,能为偏远地区、海洋等传统网络覆盖薄弱区域提供高速宽带服务,还配备激光通信终端,支持星间高速数据传输,支撑天地一体化网络建设,是SpaceX大规模星座部署的组成部分。

基本信息
目录编号:
59656
目录名称:
STARLINK-31912
国际标识:
2024-084C
轨道中心:
EARTH
卫星名称:
星链-31912
卫星全名:
星链-31912 (STARLINK-31912 )
卫星状态:
在轨 (已飞行725 天)
发射日期:
2024-05-06 UTC
国别 :
美国 (US)
星等 :
--
轨道信息
数据来源 国际轨道数据
星历时间: 2026-04-30T18:17:45+0800
15小时前
查看轨道信息
半长轴: 6861.169km
偏心率: 0.0001576
轨道倾角: 43.003°
近地点辐角 275.578°
升交点赤经 109.806°
平近点角 84.489°
近地点: 481.95km
远地点: 484.114km
周期: 94.266分钟
每日圈数: 15.275859
详细信息
固有亮度:
5
最大亮度:
1.5
卫星平台:
Starlink v2.0 mini
覆盖范围:
全球
运营商:
太空探索技术公司
运营商所在国:
美国
制造商(研发单位):
太空探索技术公司
制造商所在国:
美国
使用方式:
暂无
卫星简介
星链(Starlink)计划是由太空探索技术公司(SpaceX)提出的一个巨型低轨卫星互联网星座项目,计划在2019年至2024年间在太空搭建由约1.2万颗卫星组成的“星链”网络,其中1584颗将部署在地球上空550千米处的近地轨道,并从2020年开始工作。该卫星仍在工作。
2D轨道图
3D轨道图
轨道高度分析图
轨道倾角分析图
轨道综合分析图
查看轨道综合分析图